Rotterdam, Netherlands

9:07 AM CEST on September 20, 2017 (GMT +0200)
Rotterdam

Weather History for EHRD - February, 2014

Change the Weather History Date:

Thursday, February 6, 2014

  Actual Average Record
Temperature  
Mean Temperature 44 °F -  
Max Temperature 47 °F 44 °F 53 °F (2001)
Min Temperature 42 °F 34 °F 15 °F (2012)
Degree Days  
Heating Degree Days 20    
Moisture  
Dew Point 40 °F    
Average Humidity 79    
Maximum Humidity 94    
Minimum Humidity 69    
Precipitation  
Precipitation 0.16 in - - ()
Sea Level Pressure  
Sea Level Pressure 29.42 in    
Wind  
Wind Speed 19 mph ()    
Max Wind Speed 23 mph    
Max Gust Speed 39 mph    
Visibility 6.9 miles    
Events Rain    
Averages and records for this station are not official NWS values.
T = Trace of Precipitation, MM = Missing Value Source: Averaged Metar Reports

Daily Weather History Graph

Daily Weather History Graph

Search for Another Location

Airport or City:

Trip Planner

Search our weather history database for the weather conditions in past years. The results will help you decide how hot, cold, wet, or windy it might be!

Date:

Astronomy

Feb. 06, 2014 Rise Set
Actual Time 8:13 AM CET 5:39 PM CET
Civil Twilight 7:38 AM CET 6:15 PM CET
Nautical Twilight 6:57 AM CET 6:55 PM CET
Astronomical Twilight 6:18 AM CET 7:34 PM CET
Moon 11:00 AM CET (2/6) 1:11 AM CET (2/6)
Length of Visible Light 10h 37m
Length of Day
9h 25m
Waxing Crescent, 46% of the Moon is Illuminated
Feb 6
Waxing Crescent
Feb 6
First Quarter
Feb 15
Full
Feb 22
Last Quarter
Mar 1
New

Hourly Weather History & Observations

Time (CET) Temp. Windchill Dew Point Humidity Pressure Visibility Wind Dir Wind Speed Gust Speed Precip Events Conditions
12:00 AM 47 °F - 41 °F 73% 29.35 in 9 mi SSW 22.4 mph - -   Partly Cloudy
12:25 AM 46.4 °F 38.3 °F 41.0 °F 81% 29.33 in 6.2 mi SSW 23.0 mph 36.8 mph N/A   Scattered Clouds
12:55 AM 46.4 °F 38.3 °F 41.0 °F 81% 29.36 in 6.2 mi SSW 23.0 mph 34.5 mph N/A   Partly Cloudy
1:00 AM 47 °F - 40 °F 70% 29.37 in 10 mi SSW 22.4 mph - -   Partly Cloudy
1:25 AM 46.4 °F 38.3 °F 41.0 °F 81% 29.36 in 6.2 mi SSW 23.0 mph - N/A   Partly Cloudy
1:55 AM 46.4 °F 38.5 °F 41.0 °F 81% 29.39 in 6.2 mi SSW 21.9 mph - N/A   Partly Cloudy
2:00 AM 46 °F - 40 °F 72% 29.40 in 9 mi SSW 20.1 mph - -  
2:25 AM 46.4 °F 38.5 °F 39.2 °F 76% 29.39 in 6.2 mi SSW 21.9 mph - N/A   Unknown
2:55 AM 46.4 °F 38.5 °F 39.2 °F 76% 29.42 in 6.2 mi SSW 21.9 mph 33.4 mph N/A   Partly Cloudy
3:00 AM 46 °F - 40 °F 71% 29.43 in 9 mi SSW 22.4 mph - -   Scattered Clouds
3:25 AM 46.4 °F 38.3 °F 39.2 °F 76% 29.42 in 6.2 mi SSW 23.0 mph - N/A   Partly Cloudy
3:55 AM 44.6 °F 36.1 °F 37.4 °F 76% 29.42 in 6.2 mi SSW 21.9 mph 39.1 mph N/A   Partly Cloudy
4:00 AM 44 °F - 38 °F 73% 29.45 in 14 mi SSW 20.1 mph - -  
4:25 AM 44.6 °F 36.1 °F 39.2 °F 81% 29.44 in 6.2 mi SSW 21.9 mph - N/A   Unknown
4:55 AM 44.6 °F 36.6 °F 39.2 °F 81% 29.44 in 6.2 mi SSW 19.6 mph 32.2 mph N/A   Partly Cloudy
5:00 AM 44 °F - 38 °F 73% 29.46 in 9 mi SSW 17.9 mph - -   Partly Cloudy
5:25 AM 44.6 °F 36.4 °F 39.2 °F 81% 29.44 in 6.2 mi SSW 20.7 mph 32.2 mph N/A   Mostly Cloudy
5:55 AM 44.6 °F 36.9 °F 37.4 °F 76% 29.44 in 6.2 mi SSW 18.4 mph 31.1 mph N/A   Mostly Cloudy
6:00 AM 44 °F - 38 °F 73% 29.48 in 9 mi SSW 20.1 mph - - Rain Rain Showers
6:25 AM 44.6 °F 36.1 °F 39.2 °F 81% 29.47 in 6.2 mi SSW 21.9 mph - N/A   Mostly Cloudy
6:55 AM 44.6 °F 36.4 °F 37.4 °F 76% 29.47 in 6.2 mi SSW 20.7 mph 32.2 mph N/A   Partly Cloudy
7:00 AM 44 °F - 38 °F 73% 29.49 in 8 mi SSW 20.1 mph - -   Unknown Precipitation
7:25 AM 44.6 °F 36.4 °F 37.4 °F 76% 29.47 in 6.2 mi SSW 20.7 mph 36.8 mph N/A   Mostly Cloudy
7:55 AM 44.6 °F 36.1 °F 37.4 °F 76% 29.47 in 6.2 mi SSW 21.9 mph - N/A   Mostly Cloudy
8:00 AM 44 °F - 38 °F 73% 29.49 in 7 mi SSW 22.4 mph - - Rain Rain
8:25 AM 44.6 °F 36.4 °F 37.4 °F 76% 29.47 in 6.2 mi SSW 20.7 mph 36.8 mph N/A   Unknown
8:55 AM 42.8 °F 34.5 °F 37.4 °F 81% 29.50 in 6.2 mi SSW 18.4 mph 29.9 mph N/A   Partly Cloudy
9:00 AM 44 °F - 38 °F 73% 29.52 in 8 mi SSW 20.1 mph - -   Partly Cloudy
9:25 AM 44.6 °F 36.6 °F 39.2 °F 81% 29.50 in 6.2 mi SSW 19.6 mph 31.1 mph N/A   Mostly Cloudy
9:55 AM 44.6 °F 36.9 °F 39.2 °F 81% 29.53 in 6.2 mi SSW 18.4 mph 32.2 mph N/A   Mostly Cloudy
10:00 AM 44 °F - 38 °F 74% 29.54 in 8 mi SSW 17.9 mph - -   Partly Cloudy
10:25 AM 44.6 °F 36.9 °F 39.2 °F 81% 29.53 in 6.2 mi SSW 18.4 mph - N/A   Partly Cloudy
10:55 AM 46.4 °F 39.5 °F 39.2 °F 76% 29.53 in 6.2 mi SSW 17.3 mph - N/A   Partly Cloudy
11:00 AM 46 °F - 39 °F 69% 29.55 in 8 mi SSW 17.9 mph - -   Partly Cloudy
11:25 AM 46.4 °F 39.2 °F 39.2 °F 76% 29.53 in 6.2 mi SSW 18.4 mph - N/A   Partly Cloudy
11:55 AM 46.4 °F 38.7 °F 39.2 °F 76% 29.56 in 6.2 mi SSW 20.7 mph - N/A   Partly Cloudy
12:00 PM 47 °F - 40 °F 69% 29.57 in 7 mi SSW 17.9 mph - -   Partly Cloudy
12:25 PM 46.4 °F 39.0 °F 41.0 °F 81% 29.56 in 6.2 mi SSW 19.6 mph - N/A   Partly Cloudy
12:55 PM 46.4 °F 39.8 °F 41.0 °F 81% 29.53 in 6.2 mi South 16.1 mph - N/A   Partly Cloudy
1:00 PM 47 °F - 40 °F 71% 29.55 in 8 mi South 15.7 mph - -   Partly Cloudy
1:25 PM 48.2 °F - 41.0 °F 76% 29.53 in 6.2 mi South 16.1 mph - N/A   Partly Cloudy
1:55 PM 48.2 °F - 41.0 °F 76% 29.50 in 6.2 mi South 17.3 mph - N/A   Overcast
2:00 PM 47 °F - 41 °F 74% 29.52 in 9 mi South 17.9 mph - -   Overcast
2:25 PM 48.2 °F - 41.0 °F 76% 29.50 in 6.2 mi South 19.6 mph - N/A   Overcast
2:55 PM 46.4 °F 39.0 °F 41.0 °F 81% 29.50 in 6.2 mi SSW 19.6 mph - N/A   Scattered Clouds
3:00 PM 46 °F - 41 °F 78% 29.50 in 10 mi SSW 13.4 mph - - Rain Rain
3:25 PM 46.4 °F 40.7 °F 41.0 °F 81% 29.47 in 6.2 mi South 12.7 mph - N/A   Unknown
3:55 PM 46.4 °F 41.5 °F 41.0 °F 81% 29.44 in 6.2 mi South 10.4 mph - N/A   Light Drizzle
4:00 PM 47 °F - 41 °F 73% 29.47 in 7 mi South 11.2 mph - - Rain Light Rain Showers
4:25 PM 46.4 °F 40.7 °F 41.0 °F 81% 29.44 in 5.6 mi South 12.7 mph - N/A Rain Light Rain
4:55 PM 46.4 °F 40.1 °F 41.0 °F 81% 29.42 in 6.2 mi South 15.0 mph - N/A Rain Light Rain
5:00 PM 45 °F - 41 °F 81% 29.43 in 6 mi South 17.9 mph - - Rain Light Rain
5:25 PM 44.6 °F 38.1 °F 42.8 °F 93% 29.42 in 6.2 mi SSE 13.8 mph - N/A Rain Light Rain
5:55 PM 44.6 °F 36.9 °F 41.0 °F 87% 29.39 in 5.6 mi SSE 18.4 mph - N/A Rain Light Rain
6:00 PM 44 °F - 41 °F 84% 29.39 in 6 mi SSE 22.4 mph - - Rain Light Rain
6:25 PM 42.8 °F 34.0 °F 41.0 °F 93% 29.36 in 5.6 mi SSE 20.7 mph - N/A Rain Light Rain Showers
6:55 PM 42.8 °F 34.0 °F 39.2 °F 87% 29.36 in 6.2 mi SSE 20.7 mph - N/A Rain Light Rain Showers
7:00 PM 42 °F - 40 °F 89% 29.35 in 4 mi SSE 17.9 mph - - Rain Rain
7:25 PM 42.8 °F 34.8 °F 39.2 °F 87% 29.33 in 6.2 mi SE 17.3 mph - N/A Rain Light Rain Showers
7:55 PM 42.8 °F 34.5 °F 41.0 °F 93% 29.30 in - SSE 18.4 mph - N/A Rain Light Rain
8:00 PM 42 °F - 41 °F 94% 29.30 in 2 mi SE 17.9 mph - - Rain Rain
8:25 PM 42.8 °F 34.5 °F 41.0 °F 93% 29.27 in 3.7 mi SSE 18.4 mph - N/A Rain Light Rain Showers
8:55 PM 44.6 °F 37.4 °F 41.0 °F 87% 29.24 in 6.2 mi SSE 16.1 mph - N/A   Scattered Clouds
9:00 PM 44 °F - 41 °F 85% 29.26 in 12 mi SSE 15.7 mph - - Rain Light Rain Showers
9:25 PM 44.6 °F 37.2 °F 41.0 °F 87% 29.24 in 6.2 mi SSE 17.3 mph - N/A Rain Light Rain
9:55 PM 44.6 °F 36.4 °F 41.0 °F 87% 29.21 in 6.2 mi SSE 20.7 mph 32.2 mph N/A Rain Light Rain
10:00 PM 45 °F - 41 °F 81% 29.23 in 9 mi South 17.9 mph - - Rain Light Rain
10:25 PM 46.4 °F 39.5 °F 41.0 °F 81% 29.21 in 6.2 mi SSE 17.3 mph - N/A Rain Light Rain
10:55 PM 46.4 °F 39.8 °F 41.0 °F 81% 29.18 in 6.2 mi South 16.1 mph - N/A   Overcast
11:00 PM 46 °F - 40 °F 74% 29.20 in 15 mi South 15.7 mph - - Rain Light Drizzle
11:25 PM 46.4 °F 39.8 °F 41.0 °F 81% 29.18 in 6.2 mi South 16.1 mph - N/A   Light Drizzle
11:55 PM 46.4 °F 39.5 °F 41.0 °F 81% 29.15 in 6.2 mi SSE 17.3 mph - N/A   Partly Cloudy